This is the latest recevied weather packets stored in our database for station/object DG8SF-13. If no packets are shown the sender has not sent any weather packets the latest 10 day(s).
| Time | Temp. | Humidity | Pressure | Rain* | Wind** | Luminosity | Snow |
|---|---|---|---|---|---|---|---|
| 1778077025 | 18.33° C | 61% | 1004.4 hPa | 0 mm | - | - | - |
| 1778076715 | 18.33° C | 61% | 1004.4 hPa | 0 mm | - | - | - |
| 1778076402 | 18.33° C | 60% | 1004.5 hPa | 0 mm | - | - | - |
| 1778076090 | 18.33° C | 59% | 1004.5 hPa | 0 mm | - | - | - |
| 1778075776 | 18.89° C | 60% | 1004.4 hPa | 0 mm | - | - | - |
| 1778075468 | 18.89° C | 58% | 1004.5 hPa | 0 mm | - | - | - |
| 1778075153 | 18.89° C | 57% | 1004.7 hPa | 0 mm | - | - | - |
| 1778074841 | 18.89° C | 58% | 1004.7 hPa | 0 mm | - | - | - |
| 1778074528 | 18.33° C | 58% | 1004.7 hPa | 0 mm | - | - | - |
| 1778074217 | 18.33° C | 58% | 1004.7 hPa | 0 mm | - | - | - |
| 1778073906 | 18.33° C | 58% | 1004.7 hPa | 0 mm | - | - | - |
| 1778073593 | 18.33° C | 58% | 1004.6 hPa | 0 mm | - | - | - |
| 1778073280 | 18.33° C | 57% | 1004.6 hPa | 0 mm | - | - | - |
| 1778072973 | 18.89° C | 58% | 1004.5 hPa | 0 mm | - | - | - |
| 1778072656 | 19.44° C | 57% | 1004.6 hPa | 0 mm | - | - | - |
| 1778072350 | 18.89° C | 56% | 1004.6 hPa | 0 mm | - | - | - |
| 1778072034 | 19.44° C | 56% | 1004.5 hPa | 0 mm | - | - | - |
| 1778071721 | 19.44° C | 55% | 1004.5 hPa | 0 mm | - | - | - |
| 1778071409 | 18.33° C | 56% | 1004.5 hPa | 0 mm | - | - | - |
| 1778071098 | 18.33° C | 59% | 1004.6 hPa | 0 mm | - | - | - |
| 1778070785 | 18.33° C | 56% | 1004.6 hPa | 0 mm | - | - | - |
| 1778070474 | 18.89° C | 56% | 1004.6 hPa | 0 mm | - | - | - |
| 1778070160 | 18.89° C | 55% | 1004.5 hPa | 0 mm | - | - | - |
| 1778069851 | 18.33° C | 56% | 1004.5 hPa | 0 mm | - | - | - |
| 1778069536 | 18.33° C | 57% | 1004.6 hPa | 0 mm | - | - | - |
* Rain latest hour (hover to see other rain measurements)
** Current wind speed in m/s (hover to see current wind gust speed)